Tracking 18980 objects as of 19-Feb-2018
HD Live streaming from Space Station
objects crossing your sky now

SPACENET 4 (ASC 2)

Track SPACENET 4 (ASC 2) now!
SPACENET 4 (ASC 2) is classified as:


NORAD ID: 21227
Int'l Code: 1991-028A
Perigee: 35,948.8 km
Apogee: 36,032.6 km
Inclination: 11.1 °
Period: 1,446.2 minutes
Semi major axis: 42361 km
RCS: 6.3095 m2 (large)
Launch date: April 13, 1991
Source: United States (US)
Launch site: AIR FORCE EASTERN TEST RANGE (AFETR)

Communications in Pacific region.
aabbcc
Your satellite tracking list
Your tracking list is empty




NASA's NSSDC Master Catalog

Two Line Element Set (TLE):
1 21227U 91028A   18049.20115432 -.00000150 +00000-0 +00000-0 0  9991
2 21227 011.0704 035.7967 0009893 269.0680 273.6211 00.99573156096109
Source of the keplerian elements: AFSPC